Regional Weather Roundup
Issued by NWS Burlington, VT

Current Version | Previous Version | Text Only | Print | Product List | Glossary On
Versions: 1 2 3 4 5 6 7 8 9 10 11 12 13 14 15 16 17 18 19 20 21 22 23 24 25 26 27 28 29 30 31 32 33 34 35 36 37 38 39 40 41 42 43 44 45 46 47 48 49 50
000
ASUS41 KBTV 262230
RWRBTV
VERMONT REGIONAL WEATHER ROUNDUP
NATIONAL WEATHER SERVICE BURLINGTON VT
600 PM EDT SUN JUN 26 2016

NOTE: "FAIR" INDICATES FEW OR NO CLOUDS BELOW 12,000 FEET WITH NO
SIGNIFICANT WEATHER AND/OR OBSTRUCTIONS TO VISIBILITY.

* THESE REPORTS ARE NOT UNDER NWS QUALITY CONTROL AND/OR DO NOT
  REPORT WEATHER SUCH AS PRECIPITATION AND FOG.

VTZ001>019-262300-
_____VERMONT_____


CITY           SKY/WX    TMP DP  RH WIND       PRES   REMARKS
BURLINGTON     PTSUNNY   89  57  33 S10G21    30.02F
MONTPELIER     FAIR      83  56  39 SW8       30.13F
MORRISVILLE    FAIR      84  55  36 SW9       30.07F
ST. JOHNSBURY*   N/A     86  56  35 MISG      30.05F
LYNDONVILLE*   FAIR      82  57  42 SE9       30.10F
MIDDLEBURY*    FAIR      85  55  35 S12       30.05F
RUTLAND*       FAIR      85  55  35 VRB6      30.10F
SPRINGFIELD    FAIR      85  57  38 S8        30.09F
HIGHGATE*      FAIR      87  61  40 S9        30.00F
NEWPORT*       FAIR      83  56  40 SW8       30.06F
BENNINGTON     FAIR      85  57  38 W5        30.10F
SUTTON*          N/A     81 N/A N/A MISG        N/A
GALLUP MILLS*    N/A     82 N/A N/A MISG        N/A
UNION VILLAGE*   N/A     84 N/A N/A MISG        N/A
MT. MANSFIELD*   N/A     73 N/A N/A W8          N/A

_____LAKE CHAMPLAIN_____


CITY           SKY/WX    TMP DP  RH WIND       PRES   REMARKS
BURTON ISLAND*   N/A     81  63  54 S12         N/A
COLCHESTER RF*   N/A     79  64  61 S18         N/A
DIAMOND ISL*     N/A     88  57  35 SE17        N/A

$$

NYZ007-026>031-035-052-083-087-262300-
_____NORTHERN NEW YORK_____


CITY           SKY/WX    TMP DP  RH WIND       PRES   REMARKS
PLATTSBURGH    MOSUNNY   86  62  44 S14       30.00F
SARANAC LAKE   SUNNY     83  51  33 SW12      30.08F
MASSENA        MOSUNNY   89  61  38 SW15G23   29.99F
OGDENSBURG*    SUNNY     86  61  42 SW8       29.98F
STARK FALLS*     N/A     88 N/A N/A S13         N/A
WATERTOWN      PTSUNNY   86  57  37 SW7G17    29.99F
FT DRUM        MOSUNNY   88  57  35 SW15      30.01F
ALBANY         PTSUNNY   89  56  32 S13       30.07F
GLENS FALLS    SUNNY     87  58  37 S9        30.06F

$$
NHZ002-005-011-262300-
_____NEW HAMPSHIRE_____


CITY           SKY/WX    TMP DP  RH WIND       PRES   REMARKS
LEBANON        SUNNY     88  59  37 S7        30.07F
KEENE          MOSUNNY   86  55  35 S12       30.11S
MT WASHINGTON  PTSUNNY   59  48  67 S10         N/A
PLYMOUTH       FAIR      86  55  34 S3        30.08F
WHITEFIELD     SUNNY     87  53  31 SW6       30.09F

$$

_____REGIONAL QUEBEC LOCATIONS_____


CITY           SKY/WX    TMP DP  RH WIND       PRES   REMARKS
MONTREAL       PTSUNNY   90  61  37 SW13G20   29.97F
QUEBEC CITY    PTSUNNY   86  59  39 SW9       29.99F
SHERBROOKE     PTSUNNY   86  55  35 S9        30.04F

_____REGIONAL ONTARIO LOCATIONS_____


CITY           SKY/WX    TMP DP  RH WIND       PRES   REMARKS
OTTAWA         PTSUNNY   86  63  45 SW15G26   29.97F

______KEY______
VSB  - VISIBILITY IN MILES
WCI  - WIND CHILL INDEX
HX   - HEAT INDEX
$$
NNNN



USA.gov is the U.S. government's official web portal to all federal, state and local government web resources and services.